Location: Newark
(39.0083°N, 20.7336°E)
Time: 19:38:24
(UTC+00:00)

Nauka - Pass Details

Date: 05 October 2021
Orbit: 417 x 423 km, 51.6° (Epoch: 19 October)

Event Time Altitude Azimuth Distance (km) Brightness Sun altitude
Rises 18:24:19 0° 294° (WNW) 2,362 ? -26.1°
Reaches altitude 10° 18:26:49 10° 276° (W) 1,495 ? -26.5°
Enters shadow 18:28:37 18° 245° (WSW) 1,101 ? -26.9°
